N4MRV-1 Weather Reports


Display with metric or nautical units.
time (UTC)temp
F
wind
direction
speed
MPH
gust
MPH
rain 1hr
in
rain 24hr
in
rain mn
in
humidity
%
barometer
mb
20260904064516 79 0.0 1.0 0.00 0.00 0.00 78 1014.2
20260904063016 80 0.0 1.0 0.00 0.00 0.00 78 1014.1
20260904061516 80 158 1.0 3.0 0.00 0.00 0.00 77 1014.3
20260904060016 80 225 1.0 4.0 0.00 0.00 0.00 81 1015.0
20260904054516 79 270 2.0 8.0 0.00 0.00 0.00 87 1015.3
20260904053016 79 0.0 3.0 0.00 0.00 0.00 88 1014.5
20260904051516 79 0.0 0.0 0.00 0.00 0.00 88 1014.0
20260904050016 79 0.0 0.0 0.00 0.00 0.00 87 1014.2
20260904044516 79 0.0 0.0 0.00 0.00 0.00 87 1014.3
20260904043016 79 0.0 0.0 0.00 0.00 0.00 88 1014.4
20260904041516 79 0.0 0.0 0.00 0.00 0.00 89 1014.3
20260904040016 80 0.0 0.0 0.00 0.00 0.00 89 1014.5
20260904034517 80 0.0 0.0 0.00 0.00 0.00 89 1014.4
20260904033016 80 0.0 0.0 0.00 0.00 0.00 89 1014.5
20260904031517 80 0.0 0.0 0.00 0.00 0.00 89 1014.7
20260904030037 80 0.0 0.0 0.00 0.00 0.00 88 1014.7
20260904024516 81 0.0 1.0 0.00 0.00 0.00 88 1014.5
20260904023016 81 0.0 0.0 0.00 0.00 0.00 88 1014.6
20260904021557 81 0.0 0.0 0.00 0.00 0.00 88 1014.6
20260904020016 82 0.0 0.0 0.00 0.00 0.00 87 1014.4
20260904014516 82 0.0 1.0 0.00 0.00 0.00 87 1014.8
20260904013016 82 0.0 0.0 0.00 0.00 0.00 86 1014.8
20260904011516 83 0.0 0.0 0.00 0.00 0.00 85 1015.1
20260904010036 83 0.0 0.0 0.00 0.00 0.00 85 1015.2
20260904004516 83 0.0 0.0 0.00 0.00 0.00 83 1015.3
20260904003016 84 0.0 1.0 0.00 0.00 0.00 83 1015.4
20260904001516 85 0.0 0.0 0.00 0.00 0.00 82 1015.0
20260904000016 85 0.0 0.0 0.00 0.00 0.00 81 1014.7
20260903234516 86 0.0 0.0 0.00 0.00 0.00 80 1014.5
20260903233016 87 0.0 1.0 0.00 0.00 0.00 79 1014.4
20260903231516 87 0.0 0.0 0.00 0.00 0.00 78 1014.4
20260903230016 88 0.0 1.0 0.00 0.00 0.00 76 1014.3
20260903224516 89 0.0 1.0 0.00 0.00 0.00 75 1014.3
20260903223016 90 0.0 0.0 0.00 0.00 0.00 73 1014.3
20260903221516 90 0.0 0.0 0.00 0.00 0.00 72 1014.2
20260903220015 91 0.0 0.0 0.00 0.00 0.00 70 1014.4
20260903214536 91 0.0 1.0 0.00 0.00 0.00 69 1014.4
20260903213016 92 0.0 2.0 0.00 0.00 0.00 68 1014.5
20260903211515 92 0.0 1.0 0.00 0.00 0.00 68 1014.5
20260903210016 92 293 1.0 3.0 0.00 0.00 0.00 68 1014.6
20260903204535 92 0.0 3.0 0.00 0.00 0.00 66 1014.8
20260903203055 92 0.0 2.0 0.00 0.00 0.00 69 1014.8
20260903201515 92 0.0 4.0 0.00 0.00 0.00 67 1015.0
20260903200016 92 0.0 2.0 0.00 0.00 0.00 66 1015.2
20260903194516 92 0.0 2.0 0.00 0.00 0.00 67 1015.4
20260903193016 92 338 1.0 3.0 0.00 0.00 0.00 67 1015.6
20260903191536 91 315 1.0 3.0 0.00 0.00 0.00 69 1015.7
20260903190016 91 180 1.0 3.0 0.00 0.00 0.00 69 1016.0
20260903184515 90 293 1.0 3.0 0.00 0.00 0.00 69 1016.2
20260903183116 89 68 1.0 2.0 0.00 0.00 0.00 69 1016.3
20260903181515 89 338 1.0 3.0 0.00 0.00 0.00 72 1016.5
20260903180015 88 135 1.0 5.0 0.00 0.00 0.00 71 1016.8
20260903174515 88 0.0 2.0 0.00 0.00 0.00 73 1017.0
20260903173015 88 315 1.0 3.0 0.00 0.00 0.00 73 1016.9
20260903171515 87 293 1.0 3.0 0.00 0.00 0.00 74 1017.1
20260903170015 87 293 1.0 4.0 0.00 0.00 0.00 73 1017.4
20260903164515 87 270 1.0 4.0 0.00 0.00 0.00 72 1017.5
20260903163015 87 270 1.0 4.0 0.00 0.00 0.00 73 1017.6
20260903161517 87 270 1.0 2.0 0.00 0.00 0.00 73 1017.8
20260903160017 87 0.0 3.0 0.00 0.00 0.00 76 1017.9
20260903154537 86 293 1.0 2.0 0.00 0.00 0.00 77 1017.9
20260903153037 85 293 1.0 6.0 0.00 0.00 0.00 77 1017.8
20260903151517 85 315 1.0 3.0 0.00 0.00 0.00 79 1018.0
20260903150017 84 45 1.0 3.0 0.00 0.00 0.00 80 1017.7
20260903144537 83 135 1.0 3.0 0.00 0.00 0.00 83 1017.7
20260903143017 82 113 1.0 3.0 0.00 0.00 0.00 85 1017.6
20260903141537 81 45 1.0 3.0 0.00 0.00 0.00 87 1017.6
20260903140017 79 270 1.0 6.0 0.00 0.00 0.00 92 1017.4
20260903134517 78 0.0 3.0 0.00 0.00 0.00 95 1017.1
20260903133017 77 0.0 1.0 0.00 0.00 0.00 96 1017.2
20260903131537 76 0.0 2.0 0.00 0.00 0.00 96 1017.4
20260903130017 76 0.0 0.0 0.00 0.00 0.00 96 1017.5
20260903124517 75 0.0 0.0 0.00 0.00 0.00 96 1017.7
20260903123016 75 0.0 0.0 0.00 0.00 0.00 95 1017.7
20260903121517 74 0.0 0.0 0.00 0.00 0.00 95 1017.7
20260903120017 74 0.0 0.0 0.00 0.00 0.00 95 1017.7
20260903114516 73 0.0 0.0 0.00 0.00 0.00 94 1017.5
20260903113016 73 0.0 0.0 0.00 0.00 0.00 94 1017.3
20260903111516 73 0.0 0.0 0.00 0.00 0.00 94 1017.2
20260903110017 73 0.0 0.0 0.00 0.00 0.00 94 1017.1
20260903104536 73 0.0 0.0 0.00 0.00 0.00 94 1017.0
20260903103016 74 0.0 0.0 0.00 0.00 0.00 94 1016.9
20260903101516 74 0.0 0.0 0.00 0.00 0.00 94 1016.8
20260903100016 74 0.0 0.0 0.00 0.00 0.00 94 1017.1
20260903094516 74 0.0 0.0 0.00 0.00 0.00 94 1017.0
20260903093016 74 0.0 0.0 0.00 0.00 0.00 94 1017.0
20260903091516 74 0.0 0.0 0.00 0.00 0.00 94 1017.0
20260903090016 74 0.0 0.0 0.00 0.00 0.00 93 1016.8
20260903084516 74 0.0 0.0 0.00 0.00 0.00 93 1016.4
20260903083016 74 0.0 0.0 0.00 0.00 0.00 93 1016.4
20260903081516 74 0.0 0.0 0.00 0.00 0.00 93 1016.4
20260903080016 75 0.0 0.0 0.00 0.00 0.00 93 1016.6
20260903074516 75 0.0 0.0 0.00 0.00 0.00 93 1016.9
20260903073016 75 0.0 0.0 0.00 0.00 0.00 93 1016.9
20260903071516 75 0.0 0.0 0.00 0.00 0.00 93 1016.9
20260903070016 75 0.0 0.0 0.00 0.00 0.00 93 1016.9